Regional Weather Roundup
Issued by NWS

Home | Current Version | Previous Version | Text Only | Print | Product List | Glossary Off
Versions: 1 2 3 4 5 6 7 8 9 10 11 12 13 14 15 16 17 18 19 20 21 22 23 24 25 26 27 28 29 30 31 32 33 34 35 36 37 38 39 40 41 42 43 44 45 46 47 48 49 50

000
ASUS43 KOAX 220310
RWRNE

WEATHER ROUNDUP FOR NEBRASKA
NATIONAL WEATHER SERVICE OMAHA NE
900 PM CST SAT JAN 21 2017

NOTES: SATELLITE DATA IS BEING USED TO AUGMENT CLOUD COVER ABOVE
       12000 FEET.
       "FAIR" INDICATES FEW OR NO CLOUDS BELOW 12,000 FEET WITH NO
       SIGNIFICANT WEATHER AND/OR OBSTRUCTIONS TO VISIBILITY.

  * THESE STATIONS DO NOT REPORT WEATHER SUCH AS RAIN...SNOW OR FOG.

NEZ001>004-019>022-054>056-220400-
NEBRASKA PANHANDLE

CITY           SKY/WX    TMP DP  RH WIND       PRES   REMARKS
SCOTTSBLUFF    CLEAR     29  25  85 NE6       29.57R WCI  23
ALLIANCE       CLEAR     25  21  85 W3        29.57R
CHADRON        CLOUDY    25  23  92 SW3       29.60R
KIMBALL        CLOUDY    32  29  90 W7        29.57R WCI  26
SIDNEY         MOCLDY    28  22  78 CALM      29.57R
$$

NEZ057>060-069>072-079>082-220400-
SOUTHWEST NEBRASKA

CITY           SKY/WX    TMP DP  RH WIND       PRES   REMARKS
NORTH PLATTE   CLOUDY    28  25  88 NW3       29.56R
IMPERIAL       CLOUDY    34  25  69 NW6       29.57R WCI  29
LEXINGTON      CLEAR     33  30  88 NW5       29.55R WCI  28
MCCOOK         CLEAR     33  27  78 N10       29.54R WCI  25
OGALLALA       CLOUDY    31  27  85 W3        29.57R
$$

NEZ005>010-023>029-035>040-094-220400-
NORTH CENTRAL NEBRASKA

CITY           SKY/WX    TMP DP  RH WIND       PRES   REMARKS
VALENTINE      CLEAR     25  23  92 W6        29.57R WCI  18
AINSWORTH      CLEAR     27  26  96 W5        29.57R WCI  22
BROKEN BOW     CLEAR     34  31  88 N8        29.55R WCI  27
O`NEILL        CLEAR     33  29  85 NW6       29.56R WCI  28
ORD            CLEAR     32  27  81 CALM      29.55R
THEDFORD       CLEAR     32  29  90 CALM      29.57R
$$

NEZ041-046>049-061>064-073>077-083>087-220400-
SOUTH CENTRAL NEBRASKA

CITY           SKY/WX    TMP DP  RH WIND       PRES   REMARKS
GRAND ISLAND   CLEAR     31  30  96 CALM      29.54R
AURORA         CLEAR     35  35 100 CALM      29.53R
HASTINGS       CLOUDY    34  32  92 CALM      29.55R
HEBRON         CLEAR     32  32  99 CALM      29.54R
HOLDREGE       CLOUDY    33  32  96 N3        29.53R
KEARNEY *      CLEAR    N/A N/A N/A MISG        N/A
YORK           CLEAR     36  36 100 CALM      29.54R
$$

NEZ011>018-030>034-042>045-220400-
NORTHEAST NEBRASKA

CITY           SKY/WX    TMP DP  RH WIND       PRES   REMARKS
NORFOLK        CLEAR     29  27  92 NW5       29.54R WCI  24
ALBION         CLEAR     31  28  86 N3        29.54R
BLAIR          CLEAR     38  35  90 CALM      29.53S
FREMONT        CLEAR     34  34 100 CALM      29.54S
TEKAMAH        CLEAR     35  32  88 N10       29.55R WCI  27
WAYNE          CLEAR     30  30  99 CALM      29.55R FOG
$$

NEZ050>053-065>068-078-088>093-220400-
SOUTHEAST NEBRASKA

CITY           SKY/WX    TMP DP  RH WIND       PRES   REMARKS
LINCOLN        CLEAR     35  32  88 NW3       29.55R
OMAHA EPPLEY   CLEAR     36  31  82 CALM      29.54R
BEATRICE       CLEAR     36  35  96 NE3       29.54R
FALLS CITY     CLEAR     42  38  85 CALM      29.53R
NEBRASKA CITY  CLEAR     42  34  75 CALM      29.54R
PLATTSMOUTH    CLEAR     43  35  73 W3        29.53S
$$

NEZ044-045-051>053-067-220400-
OMAHA AREA

CITY           SKY/WX    TMP DP  RH WIND       PRES   REMARKS
OMAHA EPPLEY   CLEAR     36  31  82 CALM      29.54R
BLAIR          CLEAR     38  35  90 CALM      29.53S
FREMONT        CLEAR     34  34 100 CALM      29.54S
MILLARD        CLEAR     36  35  95 CALM      29.54S
OFFUTT AFB     CLEAR     30  30 100 CALM      29.54R
PLATTSMOUTH    CLEAR     43  35  73 W3        29.53S
WAHOO          FAIR      34  32  92 CALM      29.54R
$$



USA.gov is the U.S. government's official web portal to all federal, state and local government web resources and services.